NOAA 16 DEB, 41496

Orbit data source: Space-Track

NOAA 16 DEB, 41496 is space debris in SSO originally from a launch on Thu, 21 Sep 2000 UTC launched from the Air Force Western Test Range (AFWTR). Debris objects in space refer to the collection of defunct objects orbiting the Earth. Examples of debris include non-operational satellites, rocket bodies, and fragments generated from explosions, collisions, or faulty payload assembly.

Loading next visibility...
Identifier
41496, 2000-055LU
Orbit
SSO
Country
Flag of USUS
Related business
Manufacturer
Unknown
Mission
Spacecraft
Bus & Motor
Unknown
Mass
Unknown
Launch date (UTC)
2000-09-21 (26 years ago)
Launch vehicle
Unknown
Launch site
Air Force Western Test Range (AFWTR)
Object type
Payload
Rocket body
Debris
Shape & HBR
Unknown shape, 0.1 m
Radar Cross Section
Medium (>0.1 m² and <1 m²)

Expand to show TLE details & history
Last TLE update: 18 hours ago

TLE from 18 hours ago
0 NOAA 16 DEB
1 41496U 00055LU  26254.24738844  .00003072  00000-0  10119-2 0  9999
2 41496  98.7331   1.2642 0013468 295.4431  64.5361 14.38848872545699
Epoch: 2026-09-11T05:56Z
TLE epoch observation values (Epoch: 2026-09-11T05:56:14.361Z)
Latitude
-0.00009°
Longitude
-78.06911°
Altitude
761.119 km
Speed
7.476 km/s
True Right ascension
00h 05m 03s
True Declination
0° 00' 00"
Sunlit
Object was in full shadow at epoch
Visualization orbit readout
Latitude
Unknown
Longitude
Unknown
Altitude
Unknown
Speed
Unknown
Apparent Right ascension
Unknown
Apparent Declination
Unknown
Sunlit
N/A
Visualization observer readout
Local Sidereal Time
15:59:13
Azimuth
Unknown
Elevation
Unknown
Doppler factor
Unknown
Orbital elements
Apogee altitude
769.052 km
Perigee altitude
749.826 km
Semi-major axis
7,137.576 km
Eccentricity
0.00135
Inclination
98.7331°
RAAN
1.2642°
Arg. of periapsis
295.4431°
True anomaly
64.67554°
Mean anomaly
64.5361°
Eccentric anomaly
64.60581°
Mean motion
3.59929 °/min
Orbital period
100.02 mins
BSTAR
0.0010119
Loading maneuver chart data...
Computing Atmospheric mass density...
Loading historical data...
Loading historical data...
Loading historical data...
Loading historical data...
Loading historical data...
Loading historical data...
Loading historical data...

Documentation

Showing up to 5 results
|